Simultaneous Nadir Overpasses (SNOs) Predictions

Prediction of SNOs between LANDSAT-8 and METOP-B Satellite Orbit:

Table of predicted SNOs for the next 14.0 days since TLE Epoch: 5/4/2019
Index Date (LANDSAT-8) Time (LANDSAT-8) Lat,Lon (LANDSAT-8) SZA (LANDSAT-8 ) Date (METOP-B) Time (METOP-B) Lat,Lon (METOP-B) SZA (METOP-B ) Distance(km) Time Diff (sec)
1 05/06/2019 08:20:21 -81.11, -85.41 113.19 05/06/2019 08:19:43 -81.12, -85.53 113.22 2.10 38
2 05/06/2019 09:09:46 81.14, 82.65 66.87 05/06/2019 09:10:21 81.15, 82.79 66.91 2.44 35
3 05/09/2019 03:54:38 -81.12, -18.88 113.94 05/09/2019 03:54:05 -81.12, -18.99 113.96 1.90 33
4 05/09/2019 04:44:03 81.15, 149.16 66.12 05/09/2019 04:44:43 81.15, 149.28 66.15 2.27 40
5 05/11/2019 23:28:57 -81.12, 47.52 114.67 05/11/2019 23:28:28 -81.12, 47.53 114.68 0.56 29
6 05/12/2019 00:18:22 81.14,-144.47 65.38 05/12/2019 00:19:07 81.14,-144.61 65.39 2.45 45
7 05/14/2019 19:03:16 -81.13, 114.15 115.33 05/14/2019 19:02:51 -81.13, 114.04 115.35 1.91 25
8 05/14/2019 19:52:41 81.15, -77.86 64.72 05/14/2019 19:53:29 81.16, -77.77 64.75 1.58 48
9 05/17/2019 14:37:36 -81.14,-179.36 115.97 05/17/2019 14:37:14 -81.13,-179.47 115.99 2.12 22




NCC Satellite Simultaneous Nadir Overpasses (SNOs) Prediction Service
